Location: East Guldeford
(50.9500°N, 0.7500°E)
Time: 18:27:41
(UTC+00:00)

Cosmos 489 Rocket - Pass Details

Date: 12 May 2021
Orbit: 952 x 983 km, 74.0° (Epoch: 15 June)

Event Time Altitude Azimuth Distance (km) Brightness Sun altitude
Rises 22:24:06 0° 335° (NNW) 3,646 9.2 -18.0°
Reaches altitude 10° 22:26:38 10° 336° (NNW) 2,699 8.1 -18.1°
Maximum altitude 22:32:54 83° 65° (ENE) 975 4.4 -18.5°
Enters shadow 22:36:08 31° 151° (SSE) 1,631 5.1 -18.6°
